{"data":{"norad_id":64779,"epoch":"2026-05-25T00:16:36.122016Z","epoch_age_seconds":77117,"freshness":"FRESH","line1":"1 64779U 25147AA  26145.01152919  .00027496  00000+0  82145-3 0  9998","line2":"2 64779  53.1603 247.7645 0000446 129.0378 231.0664 15.34418226 50397","mean_motion":15.34418226,"eccentricity":4.46e-5,"inclination_deg":53.1603,"raan_deg":247.7645,"arg_perigee_deg":129.0378,"mean_anomaly_deg":231.0664,"bstar":0.00082145,"rev_number":5039,"period_min":93.846643346636,"perigee_km":462.34397017168,"apogee_km":462.95416828905,"semimajor_km":6840.7860692304,"source":"CELESTRAK","updated_at":"2026-05-25T13:38:20.560460Z"}}